Wind_Speed
7 6 5 4 5 5 5 5 4 4 4 4 3 3 3 3 3 2 2 3 3 4 4 4 3 3 3 2 2 2 2 2 4 4 3 3 3 2 2 3 3 4 5
7 7 6 5 5 5 5 6 5 4 4 4 3 3 3 3 3 3 3 3 3 4 4 4 3 2 2 2 1 1 2 2 3 2 2 3 3 3 3 4 4 5 4
7 7 6 6 6 5 5 6 5 5 4 3 3 2 3 3 4 3 3 3 3 4 4 4 3 3 2 2 1 2 2 3 3 2 2 3 3 4 4 4 5 5 5
6 6 6 6 6 6 5 6 5 4 4 4 3 3 3 4 4 3 3 3 3 4 4 4 4 3 3 2 2 2 2 2 3 3 3 4 4 4 4 4 4 5 5
6 6 6 6 6 6 6 6 5 5 4 4 4 4 4 4 4 3 3 3 3 3 3 3 2 2 3 3 3 3 2 2 4 5 5 4 5 5 5 5 4 4 4
6 6 6 6 6 6 6 6 6 5 5 5 5 5 4 3 4 3 3 3 3 3 3 2 2 2 2 3 3 3 2 2 4 5 5 5 5 5 5 5 5 5 5
6 6 6 6 6 6 6 6 5 5 5 5 5 5 4 4 3 3 3 4 3 3 3 2 1 1 2 2 3 3 3 4 4 5 6 6 5 6 6 6 6 6 6
7 7 7 6 6 6 6 6 5 4 5 5 5 4 5 5 4 4 4 4 4 3 2 1 1 1 1 2 3 3 3 4 4 4 5 6 6 6 6 6 6 6 6
9 8 8 7 7 6 6 6 6 5 4 4 5 5 5 5 5 4 4 4 3 2 1 1 1 1 1 2 2 2 3 4 4 4 5 6 6 7 7 7 6 7 7
10 9 8 8 7 7 6 6 6 6 5 5 5 5 5 5 5 4 4 3 2 2 1 1 0 0 2 2 1 2 3 4 5 5 5 5 6 7 7 7 7 7 7
10 9 8 7 7 7 7 6 5 6 5 5 5 5 5 5 5 4 3 3 2 2 1 1 0 1 2 2 2 2 3 4 5 5 5 6 6 6 7 8 7 7 8
9 9 9 8 7 7 7 6 5 5 5 5 5 4 5 5 5 4 3 3 2 2 1 1 1 2 3 3 3 3 3 4 5 5 5 6 6 6 7 8 8 8 8
9 9 9 8 8 8 7 7 7 6 6 5 5 5 5 4 4 4 3 3 2 2 1 1 1 2 3 3 3 3 3 3 4 4 6 6 7 6 7 8 8 8 8
9 9 9 9 9 9 8 7 7 6 6 7 6 6 5 5 5 4 3 2 2 1 1 2 2 2 3 3 3 4 4 4 5 5 6 6 6 6 7 7 7 8 8
10 10 10 10 9 9 8 7 7 6 6 7 7 6 6 5 5 4 4 3 2 1 1 2 3 3 3 3 3 3 4 5 5 5 5 6 6 6 6 7 7 8 8
11 10 9 10 9 9 8 7 7 7 7 7 6 6 5 5 4 4 3 3 3 2 2 2 3 3 3 3 3 3 4 4 5 5 6 5 6 6 6 6 6 8 8
9 9 9 9 9 8 8 7 7 6 6 6 6 6 6 5 4 4 4 4 4 4 3 3 4 4 3 3 3 4 4 4 4 5 6 6 6 7 7 7 7 7 8
8 8 8 8 8 8 8 7 6 5 5 5 5 5 5 5 4 4 4 4 4 4 4 4 5 5 4 3 4 4 5 5 4 5 5 6 6 6 7 7 7 7 8
8 7 7 8 8 7 7 7 6 5 5 4 5 4 4 4 4 4 4 4 4 5 5 5 5 5 5 4 5 5 5 5 4 4 5 6 6 7 7 7 7 7 8
7 7 7 7 7 7 6 6 6 5 4 4 4 4 3 3 3 3 3 4 4 4 4 5 5 5 4 5 5 5 5 5 5 5 5 6 6 7 8 8 8 9 9
5 6 6 6 6 6 5 5 5 4 4 4 3 3 3 3 3 3 3 4 4 5 5 5 5 5 5 5 5 5 5 6 5 6 6 6 7 8 8 9 10 10 10
4 4 4 5 5 5 5 5 4 4 3 3 3 3 2 3 3 3 4 4 4 4 4 4 5 5 5 5 5 4 5 5 5 7 7 7 8 9 10 10 11 11 11
3 3 4 4 4 4 4 4 4 4 3 3 3 3 2 3 3 3 3 4 4 4 5 5 5 5 5 5 5 5 5 5 6 7 8 8 8 10 11 11 11 12 12
2 2 2 2 2 2 3 3 3 3 3 2 2 3 3 3 3 4 4 4 5 5 5 5 5 5 6 6 6 6 6 6 6 7 8 9 10 10 12 12 12 12 12
3 3 3 2 2 2 2 3 3 3 2 2 2 3 3 3 4 5 5 5 5 5 5 5 6 6 7 8 7 7 7 7 8 8 9 9 10 11 12 13 13 13 13
4 3 3 3 3 3 3 3 4 4 4 3 3 3 3 4 4 5 5 5 5 5 6 7 8 8 8 9 9 9 9 9 10 10 10 10 11 11 12 13 13 13 13
Wind_Direction
72 69 70 74 76 72 82 100 112 121 123 119 110 109 128 132 122 132 137 150 161 162 162 161 160 160 163 168 168 153 184 207 230 233 255 259 257 277 284 289 289 291 281
69 65 62 68 69 72 84 94 103 119 125 127 123 121 130 135 134 138 146 158 167 175 175 176 176 191 166 157 176 213 224 235 262 235 263 278 270 278 278 282 292 293 290
64 63 61 62 61 61 70 90 97 105 116 127 132 128 131 137 144 144 146 160 175 190 193 191 190 201 187 191 199 221 246 256 254 256 269 268 262 272 276 279 286 289 288
59 58 60 62 62 60 62 73 85 90 104 120 133 132 136 137 141 144 150 160 176 188 194 195 203 193 187 189 197 207 237 256 264 271 271 268 267 278 284 285 285 293 292
58 61 64 68 67 64 67 71 76 79 93 113 127 127 127 135 136 137 137 148 164 170 179 191 198 195 192 197 211 229 232 258 268 273 277 275 279 289 290 289 288 297 293
57 63 70 73 72 69 76 83 84 83 87 99 116 119 126 129 131 136 135 140 153 163 166 174 193 214 208 221 228 233 240 265 280 278 285 282 283 288 289 287 289 293 288
58 66 71 71 69 68 75 79 83 86 84 91 112 117 123 129 125 133 137 140 141 143 153 180 216 240 256 245 248 262 268 278 284 281 276 277 276 280 285 289 283 289 290
64 67 65 68 69 67 75 77 85 88 86 86 102 114 118 122 119 115 123 130 130 136 158 187 199 265 281 258 270 277 275 289 296 288 281 277 276 280 287 288 288 290 297
64 66 65 65 65 71 76 82 87 90 97 92 95 106 112 119 121 113 117 124 131 136 133 168 220 256 287 275 290 295 290 302 311 306 298 284 278 284 290 292 292 292 289
62 64 65 65 66 75 79 86 90 96 101 100 99 106 110 114 117 112 116 116 122 134 121 103 176 289 321 324 329 314 297 303 306 311 314 301 287 286 287 284 287 286 284
61 60 64 67 70 75 79 86 89 91 99 109 108 106 109 111 107 109 118 108 106 105 91 66 3 333 331 333 337 318 310 309 309 305 305 303 299 291 289 286 284 282 284
60 61 63 65 68 68 69 69 72 74 82 99 112 110 108 111 110 107 110 105 108 91 65 35 0 344 340 336 327 325 321 317 317 316 318 316 309 295 290 294 291 279 285
58 60 61 64 67 67 66 69 68 65 69 79 99 111 112 111 105 103 98 95 106 82 57 21 357 348 333 324 329 325 322 323 325 324 320 321 315 301 296 295 298 287 287
58 63 63 65 68 67 66 67 70 69 73 76 89 108 111 107 101 96 89 81 87 73 5 328 325 329 321 323 337 341 338 341 341 333 325 319 317 312 304 299 305 306 302
56 58 66 66 67 65 65 65 69 75 82 86 91 100 106 106 106 100 88 71 43 18 356 332 327 319 314 326 332 335 332 335 339 337 337 322 321 317 318 315 313 315 315
55 56 61 65 62 61 61 66 74 76 81 80 88 90 93 95 95 89 85 69 47 39 26 356 337 330 321 342 333 326 334 330 333 339 346 341 335 329 327 323 322 321 319
55 54 57 61 60 59 56 59 70 70 72 78 83 84 80 78 74 67 61 57 51 47 26 0 347 348 357 7 354 351 351 350 345 348 351 350 349 342 336 330 323 323 320
51 52 55 54 54 54 51 54 62 60 62 73 76 77 75 70 65 59 55 51 42 33 24 9 6 11 18 12 2 1 357 351 350 356 355 354 347 345 343 336 326 325 322
47 48 53 53 51 50 50 54 55 51 48 54 63 63 63 63 63 56 55 45 34 26 21 15 15 20 16 8 357 353 351 351 350 354 351 348 348 347 342 337 331 324 322
42 44 49 49 44 47 51 53 52 47 45 48 53 54 52 53 53 52 49 39 30 24 19 15 13 9 3 357 350 345 344 346 347 343 342 341 340 340 335 332 330 324 321
36 38 40 41 38 41 46 48 50 45 44 47 53 59 47 45 48 43 33 21 18 22 23 18 9 359 355 352 347 338 338 339 338 340 340 339 335 334 335 334 333 327 323
26 28 31 35 34 34 35 34 32 32 35 41 44 46 35 26 14 13 18 19 11 7 6 5 1 353 347 344 342 335 334 334 332 336 335 330 331 335 334 331 330 327 322
358 358 10 19 23 22 21 20 19 18 24 31 35 27 20 15 9 2 9 3 354 347 346 349 348 346 339 333 329 332 333 329 325 328 328 329 328 328 329 327 328 326 323
320 318 334 355 3 5 1 358 354 1 7 19 19 15 10 5 2 1 357 346 342 342 342 340 337 333 330 327 324 326 331 329 328 327 325 326 324 324 325 324 322 322 322
301 296 301 309 313 331 347 353 352 341 339 350 354 348 338 335 336 340 343 337 334 332 331 330 328 326 326 323 322 327 328 322 318 319 321 321 319 323 324 325 326 327 324
286 282 284 290 298 309 320 332 333 331 328 325 328 317 314 314 321 325 331 331 326 322 317 316 319 322 325 322 320 321 319 318 316 315 316 316 316 318 321 320 318 321 321
Height
5878 5877 5877 5877 5876 5876 5876 5877 5877 5878 5878 5879 5879 5879 5880 5880 5881 5881 5881 5882 5883 5884 5884 5885 5886 5886 5887 5888 5888 5889 5890 5890 5890 5890 5890 5891 5891 5891 5891 5891 5891 5891 5890
5879 5878 5878 5877 5877 5877 5876 5877 5877 5878 5878 5879 5879 5879 5880 5880 5881 5881 5882 5882 5883 5884 5885 5885 5886 5887 5887 5888 5889 5889 5889 5889 5890 5890 5890 5890 5891 5891 5891 5890 5890 5890 5889
5879 5879 5878 5878 5877 5877 5877 5877 5877 5878 5878 5878 5879 5879 5879 5880 5880 5881 5881 5882 5883 5884 5885 5885 5886 5887 5887 5888 5888 5889 5889 5889 5889 5889 5890 5890 5890 5890 5890 5890 5889 5889 5889
5880 5880 5879 5878 5878 5878 5877 5877 5877 5878 5878 5878 5878 5879 5879 5879 5880 5881 5881 5882 5882 5883 5884 5885 5886 5886 5887 5888 5888 5889 5889 5889 5889 5889 5889 5890 5890 5890 5889 5889 5888 5888 5888
5881 5881 5880 5879 5879 5878 5878 5878 5878 5878 5877 5877 5877 5878 5879 5879 5880 5880 5881 5882 5882 5883 5884 5885 5885 5886 5886 5887 5887 5888 5888 5889 5889 5889 5889 5889 5889 5889 5889 5888 5888 5887 5887
5882 5881 5881 5880 5879 5879 5879 5878 5878 5878 5878 5877 5878 5878 5879 5880 5880 5881 5881 5882 5883 5884 5884 5885 5885 5886 5886 5887 5887 5887 5887 5888 5888 5888 5888 5888 5888 5888 5888 5888 5887 5887 5886
5883 5882 5881 5881 5880 5880 5879 5879 5879 5879 5879 5878 5878 5878 5879 5880 5881 5881 5882 5882 5883 5884 5884 5885 5885 5885 5886 5886 5886 5886 5887 5887 5887 5887 5887 5887 5887 5887 5887 5887 5887 5886 5885
5883 5883 5882 5881 5881 5881 5880 5880 5879 5879 5879 5879 5879 5879 5880 5881 5882 5882 5883 5883 5883 5884 5884 5885 5885 5885 5886 5886 5886 5886 5886 5886 5886 5886 5886 5886 5886 5886 5886 5886 5885 5885 5884
5884 5884 5883 5882 5882 5881 5881 5881 5880 5880 5880 5880 5880 5880 5881 5881 5882 5883 5883 5883 5884 5884 5885 5885 5885 5885 5885 5885 5885 5885 5885 5885 5885 5885 5885 5885 5884 5884 5884 5884 5884 5884 5883
5886 5885 5884 5883 5883 5882 5881 5881 5881 5881 5880 5880 5881 5881 5882 5882 5882 5883 5883 5884 5884 5884 5885 5885 5885 5885 5885 5885 5885 5884 5884 5884 5884 5884 5884 5884 5883 5883 5883 5883 5882 5882 5882
5887 5886 5885 5884 5884 5883 5882 5882 5882 5882 5881 5881 5881 5881 5882 5882 5883 5883 5884 5884 5884 5884 5885 5885 5885 5884 5884 5884 5884 5884 5884 5884 5884 5883 5883 5883 5882 5881 5881 5881 5880 5880 5880
5888 5887 5886 5886 5885 5884 5883 5883 5883 5883 5882 5882 5882 5882 5882 5883 5883 5884 5884 5884 5884 5884 5884 5884 5884 5884 5884 5884 5884 5884 5884 5883 5883 5883 5882 5881 5881 5880 5880 5879 5878 5878 5878
5889 5888 5888 5887 5886 5885 5885 5884 5884 5883 5883 5883 5883 5883 5883 5884 5884 5884 5884 5884 5884 5884 5884 5884 5884 5884 5884 5884 5884 5883 5883 5883 5883 5882 5881 5880 5880 5879 5878 5877 5877 5876 5876
5890 5890 5889 5888 5887 5887 5886 5885 5885 5884 5884 5884 5883 5884 5884 5885 5885 5885 5885 5885 5885 5885 5884 5884 5884 5884 5884 5883 5883 5883 5883 5883 5882 5881 5880 5880 5879 5878 5877 5876 5876 5875 5874
5892 5891 5890 5890 5889 5888 5887 5886 5886 5885 5885 5885 5885 5885 5885 5885 5885 5885 5885 5885 5885 5884 5884 5884 5884 5884 5883 5883 5882 5882 5882 5882 5881 5880 5880 5879 5878 5877 5876 5875 5875 5874 5873
5893 5892 5891 5891 5890 5889 5888 5888 5887 5887 5886 5886 5886 5886 5886 5886 5886 5886 5886 5885 5885 5884 5884 5884 5884 5883 5883 5882 5882 5881 5881 5880 5880 5880 5879 5878 5877 5876 5876 5875 5874 5873 5872
5894 5894 5893 5892 5891 5891 5890 5889 5888 5888 5888 5888 5887 5887 5887 5887 5887 5887 5886 5886 5885 5885 5884 5884 5883 5882 5882 5882 5882 5881 5880 5879 5879 5879 5879 5878 5877 5876 5875 5874 5873 5872 5871
5896 5895 5894 5893 5893 5892 5891 5890 5890 5889 5889 5889 5888 5888 5888 5888 5887 5887 5886 5886 5885 5884 5884 5883 5883 5882 5882 5882 5881 5881 5881 5880 5879 5879 5878 5877 5876 5875 5874 5873 5872 5871 5870
5896 5896 5895 5894 5893 5893 5892 5891 5890 5890 5890 5889 5889 5889 5888 5888 5888 5887 5886 5886 5885 5884 5884 5883 5883 5882 5882 5882 5882 5881 5881 5880 5879 5879 5878 5877 5875 5874 5873 5872 5871 5870 5868
5897 5896 5895 5895 5894 5893 5893 5892 5892 5891 5891 5890 5890 5889 5889 5888 5888 5887 5887 5886 5885 5884 5884 5883 5882 5882 5882 5882 5881 5881 5880 5880 5879 5878 5877 5876 5875 5874 5872 5871 5870 5869 5867
5898 5897 5896 5896 5895 5894 5893 5893 5892 5892 5891 5891 5890 5890 5889 5889 5888 5887 5887 5886 5885 5885 5884 5883 5882 5882 5882 5881 5881 5880 5880 5879 5878 5877 5876 5875 5874 5873 5872 5870 5869 5867 5866
5898 5898 5897 5896 5896 5895 5894 5893 5893 5892 5892 5891 5890 5890 5889 5889 5888 5887 5887 5886 5885 5885 5884 5883 5883 5882 5882 5881 5880 5880 5879 5879 5878 5877 5875 5874 5873 5872 5870 5869 5867 5866 5864
5898 5898 5897 5897 5896 5895 5894 5893 5893 5892 5892 5891 5890 5890 5889 5889 5888 5887 5886 5886 5885 5884 5884 5883 5882 5882 5881 5880 5880 5879 5878 5877 5876 5876 5874 5873 5871 5870 5869 5867 5865 5864 5862
5898 5898 5897 5896 5896 5895 5894 5893 5893 5892 5892 5891 5890 5890 5889 5888 5888 5887 5886 5885 5884 5884 5883 5882 5882 5881 5880 5880 5879 5878 5877 5876 5875 5874 5873 5871 5870 5868 5867 5865 5863 5862 5860
5897 5897 5897 5896 5895 5895 5894 5893 5892 5892 5891 5890 5890 5889 5888 5888 5887 5886 5885 5884 5883 5882 5882 5881 5881 5880 5879 5879 5878 5877 5876 5875 5874 5873 5871 5870 5868 5867 5865 5863 5861 5860 5857
5896 5896 5896 5895 5895 5894 5894 5893 5892 5891 5891 5890 5889 5888 5887 5887 5886 5885 5884 5883 5882 5881 5881 5880 5879 5879 5878 5877 5876 5875 5874 5873 5872 5871 5869 5868 5866 5865 5863 5861 5859 5857 5855